Regional Weather Roundup
Issued by NWS

Home | Current Version | Previous Version | Text Only | Print | Product List | Glossary Off
Versions: 1 2 3 4 5 6 7 8 9 10 11 12 13 14 15 16 17 18 19 20 21 22 23 24 25 26 27 28

000
ASUS45 KSLC 051010
RWRUT

UTAH REGIONAL WEATHER ROUNDUP
NATIONAL WEATHER SERVICE SALT LAKE CITY UT
400 AM MDT THU MAY 05 2016

UTZ001>011-023>025-051100-

NORTHERN UTAH

CITY           SKY/WX    TMP DP  RH WIND       PRES   REMARKS
BRIGHAM CITY   CLOUDY    55  41  59 NW3       29.95F
HILL AFB       CLOUDY    60  34  37 E14       29.96F
LOGAN          CLOUDY    48  43  82 CALM      29.98S
OGDEN          CLOUDY    59  35  40 S8        29.94F
PROVO AIRPORT  CLOUDY    63  30  29 E13G22    29.97R
SALT LAKE CITY CLOUDY    66  34  30 SE9       29.92F
VERNAL         CLOUDY    49  32  52 CALM      30.09F
WENDOVER       CLOUDY    54  43  66 CALM      29.93S
HEBER CITY     CLOUDY    43  34  70 CALM      30.04F

$$

UTZ012>022-026-027-051100-

SOUTHERN/CENTRAL UTAH

CITY           SKY/WX    TMP DP  RH WIND       PRES   REMARKS
BLANDING       PTCLDY    52  27  38 N8        30.21S
BRYCE CANYON   MOCLDY    33  30  88 W6        30.15F WCI  28
CEDAR CITY     MOCLDY    53  33  46 CALM      29.98F
DELTA          MOCLDY    54  34  47 S9        29.97S
HANKSVILLE     PTCLDY    50  36  57 E3        30.03R
MILFORD        MOCLDY    52  33  48 CALM      29.96F
MOAB/CYNLANDS  PTCLDY    63  28  26 VRB3      30.00F
PRICE          MOCLDY    51  29  42 N7        30.08F
ST GEORGE      CLOUDY    63  39  42 NE6       29.88S

$$

REGIONAL REPORTS     COLORADO/ARIZONA

CITY           SKY/WX    TMP DP  RH WIND       PRES   REMARKS
CRAIG, CO      CLOUDY    36  32  85 S5        30.18S WCI  32
GRAND JUNCTION CLOUDY    51  33  50 E10       30.08S
RIFLE          CLOUDY    44  33  65 E5        30.17S
MONTROSE       CLEAR     53  27  36 E13       30.17F
CORTEZ         CLEAR     43  28  55 NE7       30.17S
PAGE, AZ       PTCLDY    64  28  25 SE5       29.97S
GRAND CANYON   PTCLDY    38  30  73 CALM      30.13F
KINGMAN        PTCLDY    62  22  21 S12       29.87F
FLAGSTAFF      CLEAR     35  27  72 CALM      30.15F

$$

REGIONAL REPORTS    NEVADA/IDAHO/WYOMING

CITY           SKY/WX    TMP DP  RH WIND       PRES   REMARKS
LAS VEGAS, NV  MOCLDY    73  32  22 S5        29.72S
ELY            MOCLDY    42  28  57 S12       30.00F
ELKO           CLOUDY    53  39  59 E7        29.91F
POCATELLO, ID  CLOUDY    49  41  74 NE3       29.95F
BURLEY         MOCLDY    50  44  80 CALM      29.89F
EVANSTON, WY   CLOUDY    53  24  32 SE6       30.13F
ROCK SPRINGS   CLOUDY    51  26  37 N3        30.14S
KEMMERER         N/A     41  30  65 N12       30.16F

$$




USA.gov is the U.S. government's official web portal to all federal, state and local government web resources and services.